FW8458 Weather Reports


time (UTC)temp
C
wind
direction
speed
KPH
gust
KPH
rain 1hr
cm
rain 24hr
cm
rain mn
cm
humidity
%
barometer
mb
20260509235541 12 152 1.6 6.4 0.00 0.00 0.00 92
20260509234601 12 0.0 0.0 0.00 0.00 0.00 90
20260509233518 12 314 0.0 1.6 0.00 0.00 0.00 89
20260509232518 13 58 0.0 1.6 0.00 0.00 0.00 88
20260509231519 13 217 0.0 4.8 0.00 0.00 0.00 87
20260509230523 13 168 1.6 9.7 0.00 0.00 0.00 86
20260509225540 13 204 4.8 12.9 0.00 0.00 0.00 87
20260509224518 13 225 1.6 8.0 0.00 0.00 0.00 88
20260509223520 13 212 3.2 9.7 0.00 0.00 0.00 88
20260509222519 13 258 3.2 12.9 0.00 0.00 0.00 88
20260509221519 13 199 1.6 6.4 0.00 0.00 0.00 88
20260509220519 13 257 3.2 11.3 0.00 0.00 0.00 89
20260509215519 12 194 1.6 8.0 0.00 0.00 0.00 90
20260509214520 12 239 3.2 8.0 0.00 0.00 0.00 90
20260509213519 12 270 0.0 4.8 0.00 0.00 0.00 91
20260509212520 12 222 3.2 9.7 0.00 0.00 0.00 93
20260509211521 12 225 3.2 4.8 0.00 0.00 0.00 96
20260509210532 11 209 0.0 3.2 0.00 0.00 0.00 96
20260509205532 11 285 1.6 4.8 0.00 0.00 0.00 98
20260509204532 11 40 0.0 1.6 0.00 0.00 0.00 98
20260509203613 11 0.0 0.0 0.00 0.00 0.00 98
20260509202533 11 0.0 0.0 0.00 0.00 0.00 98
20260509201518 11 352 0.0 1.6 0.00 0.00 0.00 98
20260509200518 11 0.0 0.0 0.00 0.00 0.00 97
20260509195518 11 211 0.0 3.2 0.00 0.00 0.00 97
20260509194518 11 0.0 0.0 0.00 0.00 0.00 97
20260509193517 11 0.0 0.0 0.00 0.00 0.00 97
20260509192517 11 154 0.0 3.2 0.00 0.00 0.00 97
20260509191517 11 0.0 0.0 0.00 0.00 0.00 96
20260509190519 11 209 0.0 4.8 0.00 0.00 0.00 96
20260509185542 11 206 0.0 1.6 0.00 0.00 0.00 95
20260509184520 11 358 0.0 3.2 0.00 0.00 0.00 95
20260509183518 11 279 0.0 1.6 0.00 0.00 0.00 94
20260509182519 11 216 1.6 6.4 0.00 0.00 0.00 94
20260509181538 11 347 0.0 3.2 0.00 0.00 0.00 95
20260509180520 11 87 0.0 1.6 0.00 0.00 0.00 95
20260509175519 11 291 0.0 3.2 0.00 0.00 0.00 95
20260509174519 11 207 0.0 3.2 0.00 0.00 0.00 95
20260509173518 11 71 0.0 4.8 0.00 0.00 0.00 96
20260509172518 11 34 0.0 4.8 0.00 0.00 0.00 96
20260509171541 11 276 1.6 6.4 0.00 0.00 0.00 96
20260509170521 11 81 0.0 3.2 0.00 0.00 0.00 95
20260509165519 11 268 1.6 8.0 0.00 0.00 0.00 95
20260509164539 11 184 3.2 9.7 0.00 0.00 0.00 94
20260509163519 11 191 1.6 4.8 0.00 0.00 0.00 94
20260509162519 11 82 3.2 11.3 0.00 0.00 0.00 94
20260509161519 11 210 3.2 8.0 0.00 0.00 0.00 95
20260509160539 11 128 1.6 4.8 0.00 0.00 0.00 95
20260509155519 11 168 3.2 9.7 0.00 0.00 0.00 95
20260509154522 10 312 1.6 4.8 0.00 0.00 0.00 96
20260509153521 10 307 1.6 4.8 0.00 0.00 0.00 96
20260509152521 10 165 1.6 9.7 0.00 0.00 0.00 96
20260509151542 10 98 1.6 6.4 0.00 0.00 0.00 97
20260509150522 10 208 0.0 1.6 0.00 0.00 0.00 97
20260509145522 10 67 0.0 1.6 0.00 0.00 0.00 98
20260509144523 10 0.0 0.0 0.00 0.00 0.00 98
20260509143522 10 136 0.0 3.2 0.00 0.00 0.00 98
20260509142522 10 0.0 0.0 0.00 0.00 0.00 98
20260509141524 10 248 0.0 1.6 0.00 0.00 0.00 99
20260509140523 10 0.0 0.0 0.00 0.00 0.00 99
20260509135543 9 232 0.0 0.0 0.00 0.00 0.00 99
20260509134523 9 67 0.0 3.2 0.00 0.00 0.00 99
20260509133525 9 161 1.6 4.8 0.00 0.00 0.00 99
20260509132523 9 99 1.6 4.8 0.00 0.00 0.00 99
20260509131525 9 0.0 0.0 0.00 0.00 0.00 99
20260509130544 9 0.0 0.0 0.00 0.00 0.00 100
20260509125524 9 260 1.6 4.8 0.00 0.00 0.00 100
20260509124524 8 0.0 0.0 0.00 0.00 0.00 99
20260509123524 8 320 0.0 1.6 0.00 0.00 0.00 99
20260509122524 8 318 0.0 1.6 0.00 0.00 0.00 99
20260509121544 8 0.0 0.0 0.00 0.00 0.00 99
20260509120524 8 44 0.0 1.6 0.00 0.00 0.00 99
20260509115521 7 298 0.0 1.6 0.00 0.00 0.00 99
20260509114518 7 12 0.0 1.6 0.00 0.00 0.00 99
20260509113519 7 352 0.0 1.6 0.00 0.00 0.00 99
20260509112539 7 305 0.0 1.6 0.00 0.00 0.00 99
20260509111519 6 27 0.0 0.0 0.00 0.00 0.00 99
20260509110519 6 0.0 0.0 0.00 0.00 0.00 99
20260509105519 6 0.0 0.0 0.00 0.00 0.00 99
20260509104519 6 58 0.0 0.0 0.00 0.00 0.00 99
20260509103520 6 0.0 0.0 0.00 0.00 0.00 100
20260509102540 6 0.0 0.0 0.00 0.00 0.00 100
20260509101517 6 100 0.0 3.2 0.00 0.00 0.00 100
20260509100520 6 0.0 0.0 0.00 0.00 0.00 100
20260509095540 6 288 0.0 3.2 0.00 0.00 0.00 99
20260509094540 5 83 0.0 4.8 0.00 0.00 0.00 99
20260509093517 5 0.0 0.0 0.00 0.00 0.00 99
20260509092518 5 42 0.0 0.0 0.00 0.00 0.00 99
20260509091518 5 0.0 0.0 0.00 0.00 0.00 99
20260509090521 5 0.0 0.0 0.00 0.00 0.00 98
20260509085521 5 0.0 0.0 0.00 0.00 0.00 98
20260509084518 5 0.0 0.0 0.00 0.00 0.00 98
20260509083619 5 0.0 0.0 0.00 0.00 0.00 98
20260509082519 5 57 0.0 1.6 0.00 0.00 0.00 97
20260509081519 5 58 0.0 1.6 0.00 0.00 0.00 97
20260509080519 5 218 0.0 1.6 0.00 0.00 0.00 97
20260509075519 5 280 0.0 1.6 0.00 0.00 0.00 97
20260509074540 5 0.0 0.0 0.00 0.00 0.00 96
20260509073521 5 0.0 0.0 0.00 0.00 0.00 96
20260509072540 5 0.0 0.0 0.00 0.00 0.00 95
20260509071517 5 148 0.0 3.2 0.00 0.00 0.00 94
20260509070520 5 0.0 0.0 0.00 0.00 0.00 93
20260509065520 5 0.0 0.0 0.00 0.00 0.00 92
20260509064520 5 0.0 0.0 0.00 0.00 0.00 92
20260509063521 5 0.0 0.0 0.00 0.00 0.00 90
20260509062518 5 117 0.0 1.6 0.00 0.00 0.00 89
20260509061538 6 0.0 0.0 0.00 0.00 0.00 89
20260509060521 6 0.0 0.0 0.00 0.00 0.00 88
20260509055521 6 0.0 0.0 0.00 0.00 0.00 88
20260509054518 6 0.0 0.0 0.00 0.00 0.00 88
20260509053518 6 0.0 0.0 0.00 0.00 0.00 88
20260509052600 6 0.0 0.0 0.00 0.00 0.00 88
20260509051519 6 342 0.0 0.0 0.00 0.00 0.00 87
20260509050519 6 151 0.0 3.2 0.00 0.00 0.00 88
20260509045520 6 0.0 0.0 0.00 0.00 0.00 88
20260509044519 5 44 0.0 1.6 0.00 0.00 0.00 88
20260509043519 5 135 0.0 1.6 0.00 0.00 0.00 89
20260509042519 5 0.0 0.0 0.00 0.00 0.00 91
20260509041517 5 0.0 0.0 0.00 0.00 0.00 91
20260509040520 4 31 0.0 1.6 0.00 0.00 0.00 90
20260509035520 5 0.0 0.0 0.00 0.00 0.00 90
20260509034521 5 329 0.0 0.0 0.00 0.00 0.00 90
20260509033520 5 0.0 0.0 0.00 0.00 0.00 88
20260509032518 5 0.0 0.0 0.00 0.00 0.00 87
20260509031521 5 0.0 0.0 0.00 0.00 0.00 87
20260509030521 5 40 0.0 1.6 0.00 0.00 0.00 87
20260509025518 5 0.0 0.0 0.00 0.00 0.00 86
20260509024518 6 0.0 0.0 0.00 0.00 0.00 84
20260509023519 6 0.0 0.0 0.00 0.00 0.00 82
20260509022518 6 0.0 0.0 0.00 0.00 0.00 81
20260509021519 7 0.0 0.0 0.00 0.00 0.00 80
20260509020520 7 0.0 0.0 0.00 0.00 0.00 77
20260509015519 7 0.0 0.0 0.00 0.00 0.00 76
20260509014520 8 0.0 0.0 0.00 0.00 0.00 75
20260509013519 8 0.0 0.0 0.00 0.00 0.00 73
20260509012520 8 0.0 0.0 0.00 0.00 0.00 73
20260509011603 9 0.0 0.0 0.00 0.00 0.00 70
20260509010520 9 0.0 0.0 0.00 0.00 0.00 68
20260509005520 10 0.0 0.0 0.00 0.00 0.00 66
20260509004520 10 0.0 0.0 0.00 0.00 0.00 65
20260509003517 10 0.0 0.0 0.00 0.00 0.00 61
20260509002538 11 0.0 0.0 0.00 0.00 0.00 61
20260509001541 11 0.0 0.0 0.00 0.00 0.00 58
20260509000543 11 54 0.0 1.6 0.00 0.00 0.00 56